Regional Weather Roundup
Issued by NWS Northern Indiana

Home | Current Version | Previous Version | Graphics & Text | Print | Product List | Glossary On
Versions: 1 2 3 4 5 6 7 8 9 10 11 12 13 14 15 16 17 18 19 20 21 22 23 24 25 26 27 28 29 30 31 32 33 34 35 36 37 38 39 40 41 42 43 44 45 46 47 48 49 50
000
ASUS43 KIWX 272210
RWRIWX

KIWX WEATHER ROUNDUP
NATIONAL WEATHER SERVICE NORTHERN INDIANA
500 PM EST THU NOV 27 2014

NOTE: "FAIR" INDICATES FEW OR NO CLOUDS BELOW 12,000 FEET WITH NO
SIGNIFICANT WEATHER AND/OR OBSTRUCTIONS TO VISIBILITY.

* THESE STATIONS ARE NOT UNDER NWS QUALITY CONTROL. THEY ALSO MAY NOT
  REPORT WEATHER SUCH AS PRECIPITATION OR FOG.

INZ001>027-272300-
NORTHERN INDIANA

CITY           SKY/WX    TMP DP  RH WIND       PRES   REMARKS
GARY*          CLOUDY    27  16  63 W16       30.38R WCI  14
VALPARAISO     LGT SNOW  23  19  85 W8        30.36R FOG     WCI  14
MICHIGAN CITY* CLOUDY    28  18  64 W13       30.35R WCI  18
LAPORTE*       FLURRIES  28  21  76 W6G18     30.34R WCI  21
KNOX*          CLOUDY    26  22  85 NW12      30.34R WCI  15
SOUTH BEND     LGT SNOW  27  22  81 W15       30.32R WCI  15
GOSHEN         HVY SNOW  27  23  85 NW16      30.29R VSB 1/4 WCI  15
MONTICELLO*    CLOUDY    26  19  75 W13       30.36R WCI  15
LOGANSPORT*    FLURRIES  27  19  74 W10       30.36R WCI  17
ROCHESTER*     FLURRIES  30  27  86 W9        30.33R WCI  22
WARSAW*        FLURRIES  28  25  86 W14       30.29S WCI  17
ANGOLA*        CLOUDY    28  23  80 NW13      30.23R WCI  18
FORT WAYNE     LGT SNOW  29  24  82 W14       30.29R WCI  18
HUNTINGTON*    FLURRIES  27  23  84 W9G18     30.30R WCI  18
PERU/GRISSOM   CLOUDY    27  23  85 W16G23    30.33R WCI  14
MARION*          N/A     27  21  79 NW18G24   30.33R HAZE    WCI  14

$$
INZ028>050-272300-
CENTRAL INDIANA

CITY           SKY/WX    TMP DP  RH WIND       PRES   REMARKS
LAFAYETTE      CLOUDY    26  19  74 NW13      30.38R WCI  15
KOKOMO*        CLOUDY    27  19  74 W18G24    30.34R WCI  13
MUNCIE*        CLOUDY    28  21  75 W16       30.32R WCI  16
INDIANAPOLIS   FLURRIES  27  20  75 NW9       30.36R WCI  18

$$
MIZ043>046-050>051-056>058-064>065-071>073-077>080-272300-
SOUTHWEST LOWER MICHIGAN

CITY           SKY/WX    TMP DP  RH WIND       PRES   REMARKS
BATTLE CREEK   CLOUDY    28  20  71 NW16      30.25R WCI  16
BENTON HARBOR  LGT SNOW  26  21  81 NW8G21    30.32R VSB 3/4 WCI  18
COLDWATER*     CLOUDY    31  25  81 NW13      30.23R WCI  21
HILLSDALE*     CLOUDY    30  24  79 NW13      30.19R WCI  20
HOLLAND        LGT SNOW  25  18  74 NW10      30.31R WCI  15
GRAND RAPIDS   CLOUDY    24  16  71 NW12      30.28R WCI  13
KALAMAZOO      CLOUDY    27  19  72 NW17      30.28R WCI  14
STURGIS*       CLOUDY    27  21  80 NW12      30.26R WCI  16
THREE RIVERS*  FLURRIES  28  23  81 NW12      30.28R WCI  18

$$
OHZ001>008-015>018-024>025-272300-
NORTHWEST OHIO

CITY           SKY/WX    TMP DP  RH WIND       PRES   REMARKS
WAUSEON*       CLOUDY    32  25  74 NW15G21   30.21R WCI  22
DEFIANCE       CLOUDY    31  27  85 W9        30.24R WCI  23
FINDLAY        LGT SNOW  33  27  78 W16       30.21R WCI  23
TOLEDO EXPRESS MOCLDY    32  26  78 W12       30.20R WCI  23
TOLEDO METCALF LGT SNOW  32  26  78 W8        30.21R WCI  25
LIMA           LGT SNOW  31  26  82 W15       30.24R WCI  20

$$
AND FOR LAKE MICHIGAN COASTAL AND OPEN LAKE BUOY OBSERVATIONS

STATION/POSITION TEMP    WIND        PRES    VSBY  WAVE
                 AIR SEA DIR/SP/G                  HT/PER
                 (F)     (DEG/KT/KT) (MB)    (MI)  (FT/S)
CALUMET HARBOR    24     290/  6/ 13 1027.2S
MICHIGAN CITY     27     280/ 20/ 23   N/A
SAINT JOSEPH      29     310/ 16/ 19 1027.8R
SOUTH LAKE BUOY   26 42  320/ 17/ 21 1028.2R

$$
&&


USA.gov is the U.S. government's official web portal to all federal, state and local government web resources and services.